Location: Chavenne
(46.6022°N, 3.2951°E)
Time: 22:29:25
(UTC+00:00)

Cosmos 1437 - Pass Details

Date: 09 April 2020
Orbit: 373 x 376 km, 81.2° (Epoch: 05 June)

Event Time Altitude Azimuth Distance (km) Brightness Sun altitude
Rises 19:06:53 0° 344° (NNW) 2,258 7.0 -7.4°
Reaches altitude 10° 19:08:55 10° 338° (NNW) 1,398 6.0 -7.7°
Maximum altitude 19:11:51 48° 263° (W) 500 3.6 -8.2°
Drops below altitude 10° 19:14:45 10° 187° (S) 1,381 5.2 -8.6°
Sets 19:16:45 0° 182° (S) 2,225 6.2 -9.0°
